AirNav   Air Wisconsin pilot careers
 
 996 users online  

NA86 Johnson Private Airstrip
Luverne, North Dakota, USA

GOING TO LUVERNE?


FAA INFORMATION EFFECTIVE 29 MARCH 2018

Location

FAA Identifier: NA86
Lat/Long: 47-19-59.9630N / 097-54-03.3510W
47-19.999383N / 097-54.055850W
47.3333231 / -97.9009308
(estimated)
Elevation: 1492 ft. / 455 m (estimated)
Variation: 07E (1985)
From city: 4 miles NE of LUVERNE, ND
Time zone: UTC -5 (UTC -6 during Standard Time)
Zip code: 58056

Airport Operations

Airport use: Private use. Permission required prior to landing
Activation date: 08/1982
Control tower: no
ARTCC: MINNEAPOLIS CENTER
FSS: GRAND FORKS FLIGHT SERVICE STATION
Attendance: UNATNDD
Wind indicator: yes
Segmented circle: no

Airport Communications

WX AWOS-3 at S32 (10 nm NW): 118.750 (701-797-2566)

Nearby radio navigation aids

VOR radial/distance  VOR name  Freq  Var
JMSr049/39.8JAMESTOWN VOR/DME114.5004E

Airport Services

Fuel available: FUEL NOT FOR SALE-EMERGENCY USE ONLY.

Runway Information

Runway 17/35

Dimensions: 4100 x 50 ft. / 1250 x 15 m
Surface: turf
RUNWAY 17  RUNWAY 35
Traffic pattern: leftleft
Obstructions: 30 ft. trees, 50 ft. from runway
AND BUILDING.
none

Airport Ownership and Management from official FAA records

Ownership: Privately-owned
Owner: VERNON L. JOHNSON
RT. 2 BOX 60
LUVERNE, ND 58056
Phone 701-945-2607
Manager: VERNON L. JOHNSON
RT. 2 BOX 60
LUVERNE, ND 58056
Phone 701-945-2607

Airport Operational Statistics

Aircraft based on the field: 1
Single engine airplanes: 1
    

Instrument Procedures

There are no published instrument procedures at NA86.

Some nearby airports with instrument procedures:

S32 - Cooperstown Municipal Airport (10 nm NW)
KBAC - Barnes County Municipal Airport (24 nm S)
4V4 - Northwood Municipal Airport-Vince Field (27 nm NE)
3H4 - Hillsboro Municipal Airport (34 nm E)
KJMS - Jamestown Regional Airport (40 nm SW)
 
Loc | Ops | Rwys | IFR | FBO | Links
Com | Nav | Svcs | Stats | Notes

Mandan Aero Center
 
Area around NA86 (Johnson Private Airstrip)
 
Road maps at: MapQuest Bing Google
 
Aerial photo
No photo
 
Sectional chart

 
Airport distance calculator
Flying to Johnson Private Airstrip? Find the distance to fly.

From to NA86

Sunrise and sunset
Times for 20-Apr-2018
 Local
(UTC-5)
 Zulu
(UTC)
Morning civil twilight06:0211:02
Sunrise06:3511:35
Sunset20:2601:26
Evening civil twilight20:5901:59

Current date and time
Zulu (UTC)  20-Apr-2018 22:48:11
Local (UTC-5)  20-Apr-2018 17:48:11
 
METAR
KS32 
10nm NW 
202235Z AUTO 14009KT 10SM CLR 10/03 A3033 RMK AO2
TAF
KJMS 
39nm SW 
201738Z 2018/2118 17013KT P6SM SKC FM210200 14007KT P6SM BKN200 FM210500 17006KT P6SM SCT250 FM210900 VRB04KT P6SM SCT200 FM211000 17005KT P6SM SCT200
KRDR 
43nm NE 
202011Z 2020/2124 20012G18KT 9999 FEW200 QNH3034INS BECMG 2121/2122 20009KT 9999 SKC QNH3025INS TX13/2021Z TN01/2111Z
KGFK 
47nm NE 
201720Z 2018/2118 22010KT P6SM SCT250 FM202100 18005KT P6SM FEW250
NOTAMs
Click for the latest NOTAMs
NOTAMs are issued by the DoD/FAA and will open in a separate window not controlled by AirNav.

 

 
 

Would you like to see your business listed on this page?

 If your business provides an interesting product or service to pilots, flight crews, aircraft, or users of the Johnson Private Airstrip, you should consider listing it here.  To start the listing process, click on the button below
 
Add a business
 

Other Pages about Johnson Private Airstrip

Update a link
 
Copyright © AirNav, LLC. All rights reserved. Privacy Policy  Contact